Location: Buchberg
(46.9333°N, 15.8500°E)
Time: 19:50:54
(UTC+00:00)

CZ-4C R/B - Pass Details

Date: 14 July 2020
Orbit: 463 x 636 km, 98.0° (Epoch: 06 August)

Event Time Altitude Azimuth Distance (km) Brightness Sun altitude
Exits shadow 01:11:26 30° 226° (SW) 967 4.0 -15.5°
Maximum altitude 01:12:28 36° 261° (W) 845 3.9 -15.4°
Drops below altitude 10° 01:15:55 10° 329° (NNW) 1,720 6.2 -15.1°
Sets 01:18:04 0° 339° (NNW) 2,584 7.3 -14.9°
